[[{"header":{"parameterUnit":"m.s-1","parameterCategory":1,"la1":30.2991,"la2":30.254,"lo1":-89.0895,"lo2":-89.0444,"dy":0.0017,"dx":0.0017,"nx":28,"ny":28,"refTime":"2025-08-29T03:00:00:Z","depth":0,"parameterNumber":2,"parameterNumberName":"U-component_of_WINDS"},"data":[0,0,0,0,0,0,0,0,0,0,0,0,0,0,0,0,0,0,0,0,0,0,0,0,0,0,0,0,0,0,0,0,0,0,0,0,0,0,0,0,0,0,0,0,0,0,0,0,0,0,0,0,0,0,0,0,0,0,-1.1703,-1.1703,0,-1.1723,-1.1724,-1.1724,-1.1671,-1.1669,-1.1668,-1.1666,-1.1691,-1.1693,-1.1695,0,0,0,0,0,0,0,0,0,0,0,0,0,-1.162,-1.1622,-1.1703,-1.1703,-1.1703,-1.1723,-1.1724,-1.1724,-1.1671,-1.1669,-1.1667,-1.1665,-1.169,-1.1693,-1.1695,0,0,0,0,0,0,0,0,0,0,0,0,0,-1.165,-1.1623,-1.1703,-1.1679,-1.1677,-1.1723,-1.1724,-1.1724,-1.1672,-1.1669,-1.1667,-1.1664,-1.1689,-1.1692,-1.1696,-1.1766,0,0,-1.1706,-1.1707,0,0,0,0,0,0,0,0,-1.1648,-1.1653,-1.1683,-1.1681,-1.1679,-1.1692,-1.1703,-1.1738,-1.1672,-1.1674,-1.1666,-1.1663,-1.1693,-1.1696,-1.1706,-1.1767,-1.1768,-1.1706,-1.1708,-1.1709,-1.171,0,0,0,0,0,0,0,-1.1646,-1.1652,-1.1711,-1.1683,-1.1681,-1.1669,-1.167,-1.171,-1.1698,-1.1674,-1.167,-1.1673,-1.1692,-1.1703,-1.1706,-1.1769,-1.1706,-1.1709,-1.1711,-1.1712,-1.1889,-1.1891,0,0,0,0,0,0,-1.1647,-1.1651,-1.171,-1.1712,-1.1657,-1.1672,-1.1674,-1.169,-1.1697,-1.1696,-1.1675,-1.167,-1.1698,-1.1702,-1.1707,-1.1789,-1.1709,-1.1713,-1.1714,-1.1886,-1.1889,-1.1892,0,0,0,0,0,0,-1.1645,-1.1653,-1.171,-1.168,-1.1686,-1.1676,-1.1695,-1.1692,-1.1703,-1.1698,-1.1696,-1.1688,-1.1696,-1.1702,-1.1751,-1.1789,-1.1714,-1.1717,-1.1883,-1.1887,-1.1891,-1.1955,0,0,0,0,0,0,-1.1643,-1.1653,-1.1679,-1.1681,-1.1688,-1.1754,-1.1698,-1.1694,-1.1708,-1.1702,-1.171,-1.1708,-1.1695,-1.1747,-1.1755,-1.1792,-1.172,-1.1879,-1.1885,-1.1889,-1.195,-1.1961,-1.1971,0,0,0,0,0,-1.1641,-1.1697,-1.168,-1.1688,-1.1721,-1.1756,-1.176,-1.1742,-1.1711,-1.1738,-1.1735,-1.1708,-1.1784,-1.1752,-1.1761,-1.18,-1.1877,-1.1883,-1.1889,-1.1945,-1.1959,-1.197,0,0,0,0,0,0,-1.1701,-1.1697,-1.1679,-1.1737,-1.1747,-1.1747,-1.178,-1.1758,-1.1777,-1.1771,-1.1749,-1.1751,-1.1805,-1.1807,-1.1772,-1.1868,-1.1825,-1.1833,-1.1865,-1.1878,-1.1888,-1.1886,-1.1722,0,0,0,0,0,-1.1721,-1.1749,-1.1744,-1.1797,-1.1803,-1.1791,-1.1805,-1.179,-1.18,-1.1804,-1.1805,-1.1816,-1.1842,-1.186,-1.1884,-1.195,-1.195,-1.1981,-1.1991,-1.2,-1.2007,-1.2041,-1.2055,-1.1912,-1.1912,-1.1912,0,0,-1.1763,-1.1764,-1.1784,-1.1809,-1.1815,-1.1845,-1.1794,-1.1829,-1.1851,-1.181,-1.1856,-1.1857,-1.1868,-1.1926,-1.1951,-1.193,-1.2047,-1.2008,-1.2015,-1.2017,-1.2049,-1.2063,-1.2075,-1.1916,-1.1915,-1.1915,0,0,-1.1855,-1.1859,-1.1902,-1.1909,-1.1918,-1.1909,-1.192,-1.1923,-1.1921,-1.1967,-1.1936,-1.1963,-1.2009,-1.2017,-1.2028,-1.2122,-1.2098,-1.2131,-1.2186,-1.2219,-1.223,-1.224,-1.2274,-1.2286,-1.2138,-1.2138,-1.2138,0,-1.1906,-1.195,-1.1928,-1.1964,-1.1976,-1.1939,-1.1983,-1.1991,-1.2008,-1.2017,-1.1992,-1.2048,-1.2053,-1.2112,-1.2134,-1.2144,-1.2156,-1.213,-1.223,-1.224,-1.2249,-1.228,-1.2293,-1.2142,-1.2141,-1.2141,-1.2141,0,-1.2012,-1.2043,-1.2077,-1.2093,-1.2109,-1.2149,-1.2134,-1.2152,-1.2136,-1.213,-1.2177,-1.2182,-1.2205,-1.2218,-1.2203,-1.2275,-1.2261,-1.2234,-1.219,-1.2267,-1.2296,-1.2308,-1.2147,-1.2146,-1.2145,-1.2144,0,0,-1.2143,-1.2146,-1.2159,-1.2165,-1.2172,-1.2195,-1.2234,-1.2255,-1.2272,-1.2285,-1.2316,-1.2355,-1.2329,-1.2341,-1.2327,-1.2357,-1.243,-1.2325,-1.2325,-1.2345,-1.2509,-1.2529,-1.2544,-1.2414,-1.2416,-1.2418,-1.2508,0,-1.2234,-1.2298,-1.228,-1.2345,-1.2372,-1.2337,-1.237,-1.2378,-1.2374,-1.2397,-1.2393,-1.242,-1.2384,-1.2391,-1.2419,-1.2415,-1.2463,-1.2409,-1.2444,-1.2446,-1.2442,-1.2559,-1.2581,-1.2665,-1.2519,-1.2521,-1.2522,0,-1.2348,-1.2363,-1.2431,-1.2432,-1.2443,-1.2473,-1.2491,-1.2514,-1.2523,-1.2517,-1.253,-1.2509,-1.2547,-1.2503,-1.2555,-1.2519,-1.2532,-1.2533,-1.2535,-1.2538,-1.2489,-1.2565,-1.2692,-1.2704,-1.254,-1.2539,-1.2538,0,-1.2436,-1.2474,-1.2519,-1.2526,-1.2529,-1.2551,-1.2553,-1.2559,-1.2573,-1.2589,-1.2598,-1.2619,-1.263,-1.2647,-1.2633,-1.2602,-1.2687,-1.2642,-1.2684,-1.2685,-1.2704,-1.2703,-1.2835,-1.2713,-1.2713,-1.2712,-1.2712,0,-1.2539,-1.2582,-1.2559,-1.2587,-1.2634,-1.2612,-1.2659,-1.2657,-1.2663,-1.269,-1.2661,-1.2687,-1.2666,-1.2691,-1.268,-1.2725,-1.2731,-1.2728,-1.2724,-1.273,-1.273,-1.2739,-1.2732,-1.2716,-1.2715,-1.2714,-1.2714,0,-1.2646,-1.2632,-1.2679,-1.2677,-1.2678,-1.2712,-1.2711,-1.2737,-1.273,-1.2764,-1.2771,-1.2761,-1.2788,-1.2775,-1.2804,-1.2797,-1.2854,-1.2843,-1.2851,-1.2848,-1.2891,-1.2887,-1.3032,-1.305,-1.2917,-1.2919,-1.292,0,-1.2712,-1.2744,-1.2745,-1.276,-1.2764,-1.279,-1.2804,-1.2784,-1.2799,-1.281,-1.2835,-1.286,-1.2878,-1.2924,-1.2919,-1.2941,-1.293,-1.2979,-1.2933,-1.2938,-1.293,-1.2928,-1.2931,-1.2989,-1.299,-1.2992,-1.2993,0,-1.2831,-1.2823,-1.2843,-1.2861,-1.2878,-1.2891,-1.2903,-1.2917,-1.2897,-1.2916,-1.2943,-1.2957,-1.2986,-1.3011,-1.303,-1.3033,-1.301,-1.3007,-1.3018,-1.3024,-1.3027,-1.3026,-1.2876,-1.3004,-1.3003,-1.3002,-1.3001,-1.3001,-1.2919,-1.2946,-1.295,-1.2974,-1.298,-1.2991,-1.3014,-1.301,-1.3031,-1.3052,-1.3039,-1.3071,-1.3078,-1.3101,-1.3107,-1.3131,-1.3112,-1.3128,-1.3132,-1.3136,-1.3141,-1.3023,-1.3135,-1.3134,-1.3134,-1.3134,-1.3134,0,-1.3036,-1.3037,-1.3059,-1.3075,-1.3093,-1.3069,-1.3079,-1.3097,-1.3124,-1.3133,-1.3151,-1.3182,-1.3205,-1.3202,-1.3223,-1.3244,-1.3234,-1.325,-1.3248,-1.3249,-1.3158,-1.3146,-1.3258,-1.3258,-1.3258,-1.3258,-1.3258,-1.3258,-1.3099,-1.3142,-1.3134,-1.318,-1.318,-1.321,-1.3218,-1.3228,-1.3234,-1.3269,-1.3288,-1.3286,-1.3289,-1.331,-1.3331,-1.3329,-1.3339,-1.3359,-1.3354,-1.3268,-1.3256,-1.3244,-1.3233,-1.3361,-1.3362,-1.3443,-1.3444,-1.3444]},{"header":{"parameterUnit":"m.s-1","parameterCategory":1,"la1":30.2991,"la2":30.254,"lo1":-89.0895,"lo2":-89.0444,"dy":0.0017,"dx":0.0017,"nx":28,"ny":28,"refTime":"2025-08-29T03:00:00:Z","depth":0,"parameterNumber":3,"parameterNumberName":"V-component_of_WINDS"},"data":[0,0,0,0,0,0,0,0,0,0,0,0,0,0,0,0,0,0,0,0,0,0,0,0,0,0,0,0,0,0,0,0,0,0,0,0,0,0,0,0,0,0,0,0,0,0,0,0,0,0,0,0,0,0,0,0,0,0,-3.5501,-3.5501,0,-3.5561,-3.5562,-3.5562,-3.5519,-3.5517,-3.5516,-3.5514,-3.5573,-3.5577,-3.558,0,0,0,0,0,0,0,0,0,0,0,0,0,-3.5344,-3.5347,-3.55,-3.5501,-3.5502,-3.5561,-3.5562,-3.5563,-3.552,-3.5517,-3.5515,-3.5513,-3.5572,-3.5576,-3.558,0,0,0,0,0,0,0,0,0,0,0,0,0,-3.5409,-3.5348,-3.55,-3.5488,-3.5487,-3.5561,-3.5562,-3.5563,-3.552,-3.5517,-3.5514,-3.5512,-3.5571,-3.5576,-3.5581,-3.5669,0,0,-3.5596,-3.5598,0,0,0,0,0,0,0,0,-3.5405,-3.5414,-3.5489,-3.5489,-3.5488,-3.553,-3.5528,-3.5599,-3.5521,-3.5508,-3.5514,-3.551,-3.5561,-3.5567,-3.5584,-3.5672,-3.5675,-3.5597,-3.56,-3.5602,-3.5603,0,0,0,0,0,0,0,-3.5401,-3.5412,-3.5524,-3.549,-3.549,-3.5478,-3.5484,-3.5541,-3.555,-3.5509,-3.5506,-3.5513,-3.556,-3.558,-3.5585,-3.5676,-3.5597,-3.5601,-3.5604,-3.5606,-3.5837,-3.5839,0,0,0,0,0,0,-3.5398,-3.5408,-3.5522,-3.5526,-3.5439,-3.5483,-3.549,-3.5519,-3.5549,-3.5551,-3.5516,-3.5511,-3.5572,-3.5579,-3.5587,-3.5691,-3.5602,-3.5607,-3.561,-3.5833,-3.5837,-3.5841,0,0,0,0,0,0,-3.5394,-3.5408,-3.552,-3.5466,-3.548,-3.5489,-3.5522,-3.5522,-3.5541,-3.5554,-3.5555,-3.5534,-3.557,-3.558,-3.5649,-3.5693,-3.5609,-3.5614,-3.583,-3.5835,-3.5839,-3.5901,0,0,0,0,0,0,-3.539,-3.5407,-3.5442,-3.5468,-3.5483,-3.5582,-3.5525,-3.5525,-3.555,-3.5545,-3.5572,-3.5574,-3.5569,-3.5642,-3.5654,-3.5698,-3.5617,-3.5826,-3.5832,-3.5837,-3.5895,-3.5907,-3.5918,0,0,0,0,0,-3.5385,-3.5457,-3.5444,-3.5458,-3.5527,-3.5585,-3.5593,-3.5587,-3.5554,-3.5588,-3.5596,-3.5573,-3.5686,-3.5649,-3.5663,-3.5709,-3.5823,-3.583,-3.5837,-3.589,-3.5905,-3.5918,0,0,0,0,0,0,-3.5437,-3.5461,-3.5446,-3.553,-3.5556,-3.5577,-3.5621,-3.5603,-3.5638,-3.5632,-3.5622,-3.5628,-3.57,-3.5711,-3.567,-3.5795,-3.5749,-3.5759,-3.5785,-3.5799,-3.581,-3.5806,-3.5622,0,0,0,0,0,-3.5458,-3.5504,-3.5522,-3.5594,-3.5608,-3.5612,-3.5637,-3.563,-3.5656,-3.5666,-3.568,-3.5705,-3.5746,-3.5773,-3.5812,-3.5897,-3.5901,-3.5935,-3.5946,-3.5956,-3.5964,-3.6008,-3.6022,-3.5863,-3.5863,-3.5863,0,0,-3.5502,-3.5521,-3.5551,-3.5605,-3.5624,-3.567,-3.5622,-3.5673,-3.5707,-3.5674,-3.574,-3.575,-3.5777,-3.5854,-3.5888,-3.5866,-3.6009,-3.5964,-3.5972,-3.5975,-3.6016,-3.6031,-3.6045,-3.5868,-3.5867,-3.5866,0,0,-3.5607,-3.5626,-3.5687,-3.5707,-3.5737,-3.5739,-3.5754,-3.5778,-3.5784,-3.5849,-3.5825,-3.5864,-3.5936,-3.5956,-3.5975,-3.6085,-3.6064,-3.6098,-3.6156,-3.6199,-3.6211,-3.6222,-3.626,-3.6274,-3.6106,-3.6106,-3.6106,0,-3.5658,-3.5728,-3.5721,-3.5774,-3.5797,-3.577,-3.583,-3.585,-3.589,-3.5906,-3.5881,-3.5968,-3.5985,-3.6065,-3.6091,-3.6109,-3.6124,-3.6094,-3.621,-3.6221,-3.6231,-3.6267,-3.6281,-3.611,-3.611,-3.6109,-3.6109,0,-3.5789,-3.5838,-3.5883,-3.5923,-3.5952,-3.6008,-3.6008,-3.6037,-3.6027,-3.6031,-3.6097,-3.6116,-3.6157,-3.6175,-3.6166,-3.6254,-3.6238,-3.6212,-3.6165,-3.6251,-3.6284,-3.6297,-3.6116,-3.6114,-3.6113,-3.6112,0,0,-3.5928,-3.5962,-3.5979,-3.5996,-3.6026,-3.6063,-3.6117,-3.6158,-3.6182,-3.6211,-3.6255,-3.6315,-3.629,-3.6312,-3.6305,-3.6342,-3.6425,-3.631,-3.6311,-3.633,-3.652,-3.654,-3.6556,-3.6412,-3.6414,-3.6416,-3.6518,0,-3.6033,-3.6129,-3.6123,-3.6212,-3.6256,-3.6229,-3.6276,-3.6299,-3.6304,-3.6341,-3.6345,-3.6388,-3.6353,-3.6365,-3.6401,-3.6408,-3.6463,-3.64,-3.6451,-3.6453,-3.6444,-3.6573,-3.6594,-3.6689,-3.6531,-3.6533,-3.6535,0,-3.6169,-3.6202,-3.6296,-3.6317,-3.6335,-3.6378,-3.6413,-3.6449,-3.6473,-3.6474,-3.6498,-3.6484,-3.6536,-3.6489,-3.6561,-3.6518,-3.6538,-3.6544,-3.6548,-3.6551,-3.6498,-3.6579,-3.6719,-3.6733,-3.6555,-3.6554,-3.6552,0,-3.6259,-3.6327,-3.6392,-3.6407,-3.6434,-3.6464,-3.6477,-3.6498,-3.6522,-3.6552,-3.6567,-3.6604,-3.6623,-3.6651,-3.6646,-3.6612,-3.6718,-3.6671,-3.6719,-3.6719,-3.6742,-3.6741,-3.6886,-3.6757,-3.6757,-3.6757,-3.6756,0,-3.6377,-3.6435,-3.6433,-3.6472,-3.6536,-3.6527,-3.659,-3.6598,-3.6617,-3.6657,-3.6636,-3.6673,-3.6664,-3.6701,-3.6697,-3.6756,-3.6765,-3.6766,-3.6764,-3.6768,-3.6768,-3.678,-3.6773,-3.676,-3.676,-3.6759,-3.6758,0,-3.6489,-3.649,-3.6558,-3.6578,-3.6584,-3.663,-3.6645,-3.6682,-3.6684,-3.6735,-3.6746,-3.675,-3.6791,-3.6789,-3.6836,-3.6834,-3.6906,-3.6897,-3.6898,-3.6896,-3.6943,-3.6938,-3.7101,-3.7122,-3.698,-3.6982,-3.6983,0,-3.6563,-3.6607,-3.6631,-3.6656,-3.6671,-3.6712,-3.6736,-3.6728,-3.6754,-3.6784,-3.6816,-3.6856,-3.6887,-3.6955,-3.6961,-3.6996,-3.6987,-3.7042,-3.6992,-3.6994,-3.6986,-3.6983,-3.6987,-3.7051,-3.7053,-3.7054,-3.7055,0,-3.6695,-3.6693,-3.6729,-3.6765,-3.6794,-3.6822,-3.6848,-3.6869,-3.6864,-3.6893,-3.6936,-3.696,-3.7008,-3.7047,-3.7081,-3.7091,-3.7072,-3.7071,-3.7084,-3.7087,-3.7085,-3.7085,-3.6923,-3.7067,-3.7066,-3.7065,-3.7064,-3.7064,-3.679,-3.6827,-3.6849,-3.6889,-3.6907,-3.6931,-3.6966,-3.6972,-3.7008,-3.7046,-3.7039,-3.7087,-3.7107,-3.715,-3.7164,-3.72,-3.718,-3.7199,-3.7203,-3.7208,-3.7213,-3.708,-3.7206,-3.7205,-3.7205,-3.7205,-3.7205,0,-3.6919,-3.6931,-3.6968,-3.7004,-3.7036,-3.7015,-3.7041,-3.7069,-3.7111,-3.7132,-3.7163,-3.721,-3.7248,-3.7256,-3.7292,-3.7318,-3.731,-3.7328,-3.7325,-3.7328,-3.7229,-3.7214,-3.7334,-3.7334,-3.7334,-3.7334,-3.7334,-3.7334,-3.699,-3.7051,-3.7051,-3.712,-3.7131,-3.7178,-3.7194,-3.7215,-3.7232,-3.7286,-3.7317,-3.7323,-3.7338,-3.7374,-3.7407,-3.7408,-3.7422,-3.7443,-3.744,-3.7348,-3.7335,-3.7323,-3.7308,-3.7446,-3.7446,-3.7536,-3.7537,-3.7537]}]]